SCP
-0 0 0 -0 -0 -0 -0 0 0 0 0 0 0 0 0 0 0 -0 -0 -0 -0 -0 -0 -0 -0 0 0 0 0 0 0 0 0 0 -0 -0 -0 -0 -0 -0 0 -0 -0
-0 0 0 -0 -0 -0 -0 0 0 0 0 0 0 0 0 0 0 0 0 -0 -0 -0 -0 -0 -0 0 0 0 0 0 0 0 0 0 0 0 0 -0 -0 -0 -0 -0 -0
-0 0 0 -0 -0 -0 0 0 0 0 0 0 0 0 0 0 0 0 0 0 0 0 0 0 0 0 0 0 0 0 0 0 0 0 0 0 0 -0 -0 -0 -0 -0 -0
-0 -0 -0 -0 -0 -0 -0 0 0 0 0 0 0 0 0 0 0 -0 -0 -0 -0 0 0 0 0 0 0 0 0 0 0 0 0 0 0 -0 -0 -0 -0 -0 -0 -0 0
-0 -0 -0 -0 -0 -0 -0 0 0 0 0 0 0 0 0 -0 -0 -0 -0 -0 -0 -0 -0 -0 0 0 0 0 0 0 0 0 0 0 0 -0 -0 -0 0 -0 -0 -0 0
-0 -0 -0 -0 -0 -0 -0 -0 -0 0 0 0 0 0 0 0 -0 -0 -0 -0 -0 -0 -0 -0 -0 0 0 0 0 0 0 0 0 0 0 0 0 0 0 0 -0 -0 -0
-0 -0 -0 -0 -0 -0 -0 -0 0 0 0 0 0 0 0 0 0 0 0 0 0 0 0 0 0 0 0 0 0 0 0 0 0 0 0 0 0 0 0 0 0 0 -0
0 -0 -0 -0 -0 0 0 0 0 0 0 0 -0 -0 -0 -0 -0 -0 -0 0 0 0 0 0 0 0 0 0 0 0 0 0 0 0 0 0 0 0 0 0 0 0 0
-0 -0 -0 -0 -0 0 0 0 0 -0 -0 -0 -0 -0 -0 -0 -0 -0 -0 0 0 0 1 0 0 0 0 0 0 0 0 0 0 0 0 0 0 0 0 0 1 0 0
-0 -0 -0 -0 -0 -0 -0 -0 -0 -0 -0 -0 -0 -0 -0 -0 0 0 0 0 1 1 1 1 1 1 1 1 1 1 1 1 0 0 0 0 0 0 0 0 0 1 0
-0 -0 -0 -0 -0 -0 -0 -0 -0 -0 -0 -0 -0 -0 0 0 0 0 0 0 0 1 1 1 1 0 0 0 1 1 0 0 0 0 0 0 0 1 1 0 0 0 0
0 -0 0 0 0 0 0 0 0 0 0 0 0 0 0 0 0 0 0 0 0 1 0 0 0 0 0 0 0 0 0 0 0 0 0 0 0 0 1 1 0 0 0
0 0 0 0 0 0 0 0 0 0 0 0 0 0 0 0 0 0 0 0 0 0 0 0 0 0 0 0 0 0 0 0 0 0 0 0 0 0 0 1 1 0 1
0 0 0 0 0 0 0 0 0 0 0 0 0 0 0 0 0 0 0 0 0 0 0 0 0 0 0 0 0 0 0 0 0 0 0 0 0 0 0 0 0 1 1
0 0 0 0 0 0 0 0 0 0 0 0 0 0 0 0 0 0 0 0 0 0 0 0 0 0 0 0 0 0 0 0 0 0 0 0 0 0 0 0 0 1 1
0 0 0 0 0 0 0 0 0 0 0 0 0 0 0 0 0 0 0 0 0 0 0 0 0 0 0 0 0 0 0 0 0 0 0 0 0 1 1 1 1 1 1
0 0 0 0 0 0 0 0 0 0 0 0 0 0 0 0 0 0 0 0 0 0 0 0 0 0 0 0 0 0 0 0 0 0 0 0 0 0 0 1 1 1 0
0 0 0 0 0 0 0 0 0 0 0 0 0 0 0 0 0 0 0 0 0 0 0 0 0 0 0 0 0 0 0 0 0 0 0 0 0 0 0 0 1 1 1
0 0 0 0 0 0 0 0 0 0 0 0 0 0 0 0 0 0 0 0 0 0 0 0 0 0 0 0 0 0 0 0 0 0 0 0 0 0 0 0 1 0 0
0 0 0 0 0 0 0 0 0 0 0 0 0 0 0 0 0 0 0 0 0 0 0 0 0 0 0 0 0 0 0 0 0 0 0 0 0 0 0 0 0 0 0
0 0 0 0 0 0 0 0 0 0 0 0 0 0 0 0 0 0 0 0 0 0 0 0 0 0 0 0 0 0 0 0 0 0 0 0 0 0 0 0 0 0 0
0 0 0 0 0 0 0 0 0 0 0 0 0 0 0 0 0 0 0 0 0 0 0 0 0 0 0 0 0 0 0 0 0 0 0 0 0 0 0 0 0 0 0
0 0 0 0 0 0 0 0 0 0 0 0 0 0 0 0 0 0 0 0 0 0 0 0 0 0 0 0 0 0 0 0 0 0 0 0 0 0 0 0 0 0 0
0 0 0 0 0 0 0 0 0 0 0 0 0 0 0 0 0 0 0 0 0 0 0 0 0 0 0 0 0 0 0 0 0 0 0 0 0 0 0 0 0 0 0
0 0 0 0 0 0 0 0 0 0 0 0 0 0 0 0 0 0 0 0 0 0 0 0 0 0 0 0 0 0 0 0 0 0 0 0 0 0 0 0 0 0 0
0 0 0 0 0 0 0 0 0 0 0 0 0 0 0 0 0 0 0 0 0 0 0 0 0 0 0 0 0 0 0 0 0 0 0 0 0 0 0 0 0 0 0
Wind_Speed_500mb
31 30 27 22 20 21 21 22 23 23 23 23 23 23 23 24 23 22 21 21 21 20 19 18 18 18 18 18 18 17 18 21 24 25 25 24 27 27 26 25 23 21 21
28 29 26 22 20 19 19 19 19 19 19 19 20 20 21 21 21 21 21 21 21 20 20 18 17 14 12 10 10 10 11 13 13 14 14 15 15 18 20 20 21 20 20
24 28 27 23 20 18 16 16 16 16 17 18 19 19 19 19 19 19 18 19 20 21 21 20 19 17 14 10 6 4 6 6 7 9 9 8 7 9 12 14 15 16 16
23 27 26 23 20 17 15 13 14 14 14 14 15 15 16 16 16 17 18 19 20 20 20 19 19 19 18 15 10 8 8 9 9 7 5 9 6 5 1 6 9 10 11
23 24 22 18 16 13 11 10 11 10 10 11 12 12 11 11 13 14 16 17 16 17 20 21 21 20 19 18 16 12 10 10 9 8 9 10 12 11 8 4 2 2 5
22 21 21 18 13 11 9 8 8 6 8 10 9 9 9 12 12 13 15 18 19 17 18 19 18 18 18 17 17 16 12 11 11 12 14 16 15 12 13 11 7 5 4
20 18 20 18 14 10 7 6 6 7 8 9 9 10 11 13 15 14 16 16 17 18 18 19 19 19 18 16 16 15 16 14 14 15 14 16 20 14 20 22 20 13 11
21 23 21 18 14 11 9 9 9 9 11 11 7 8 8 11 10 12 14 9 14 15 14 16 17 17 17 17 18 17 16 17 19 20 19 17 17 25 25 26 23 24 20
22 22 22 20 19 15 15 15 16 12 7 9 11 10 10 14 15 16 18 15 12 13 14 14 17 22 22 20 20 19 19 20 23 26 26 25 21 23 32 30 40 29 26
26 22 20 21 22 23 20 17 15 9 10 9 17 14 13 16 22 27 24 21 17 18 21 23 22 23 23 24 18 15 15 19 23 24 29 29 25 22 21 27 32 32 26
19 17 17 22 21 20 16 11 9 5 2 6 13 17 18 19 26 25 28 23 24 22 17 19 22 24 26 27 27 26 22 20 22 22 24 25 21 19 18 24 25 28 28
21 23 22 22 19 16 12 14 11 10 7 3 11 15 18 20 25 30 29 32 34 33 31 31 30 33 35 34 33 32 30 24 27 30 31 33 27 19 16 9 24 34 35
29 27 24 28 27 24 16 19 17 13 9 5 11 15 20 27 32 36 37 39 37 27 38 38 37 41 42 42 39 28 24 23 23 29 29 31 33 32 41 42 47 43 44
41 37 33 32 29 23 19 19 16 11 8 10 12 18 25 32 36 41 46 48 38 37 37 34 37 39 43 42 34 31 28 23 21 22 23 25 33 37 37 38 44 46 48
46 38 31 34 28 22 23 20 16 12 9 10 15 23 31 33 38 39 34 36 40 43 42 41 45 46 48 42 41 34 31 31 29 28 28 25 25 30 32 34 33 40 43
45 37 33 35 31 27 22 18 17 13 12 16 24 28 31 36 37 25 29 36 38 38 39 43 45 45 41 43 45 42 37 30 37 36 36 36 28 25 24 24 29 40 49
34 36 34 31 33 33 26 18 17 20 25 29 28 36 43 47 42 36 32 37 42 41 42 43 50 49 50 52 48 49 42 37 34 37 34 35 43 36 31 26 20 40 52
31 34 30 32 29 26 20 15 20 26 30 30 36 45 46 48 51 51 48 43 42 41 41 43 49 50 54 50 54 46 48 42 48 50 51 41 42 46 38 31 42 41 31
34 38 36 30 26 20 16 22 23 29 30 33 40 47 53 58 57 50 44 38 38 43 45 45 41 43 46 51 47 53 49 55 59 62 54 49 37 34 45 32 28 31 40
32 36 33 29 21 21 23 25 25 28 33 36 43 51 56 58 58 55 54 57 56 56 55 57 57 56 57 58 59 57 55 54 51 44 40 38 34 32 29 34 28 22 20
40 35 32 29 26 23 29 29 32 31 42 42 50 52 62 57 52 55 55 56 55 52 45 50 57 55 51 41 33 40 50 55 46 34 27 33 26 29 27 27 23 20 23
40 42 38 37 32 26 33 33 34 38 46 54 57 61 62 57 52 54 58 56 51 48 39 33 30 27 27 29 39 45 41 54 16 12 11 9 14 12 17 14 18 18 21
42 47 46 40 33 38 29 29 34 46 50 54 55 57 59 52 55 61 55 51 49 39 32 33 33 34 37 38 43 41 18 17 35 31 13 17 19 15 10 15 18 19 18
44 49 48 39 45 40 28 33 42 47 49 49 52 52 46 49 59 57 52 50 48 35 35 31 32 30 26 27 29 19 18 24 19 16 15 18 13 12 9 13 17 17 17
30 51 47 51 40 27 32 39 46 45 46 49 48 45 45 53 50 45 47 54 47 38 32 29 32 32 29 27 24 25 24 24 24 27 33 16 11 15 17 18 17 18 17
41 41 44 33 28 31 38 42 42 45 49 47 43 43 50 48 45 53 58 55 51 45 32 27 29 27 29 33 35 34 31 29 25 23 26 20 16 12 10 12 10 9 9
Wind_Direction_500mb
159 160 158 158 147 139 126 110 102 97 92 86 81 75 71 66 62 59 55 52 50 51 53 56 59 65 71 69 68 71 78 84 73 66 62 58 57 59 55 51 51 53 61
160 148 155 156 153 143 127 116 107 102 93 85 75 68 62 56 51 45 38 35 34 33 33 35 40 44 53 59 48 49 63 72 64 44 42 41 47 58 58 57 51 49 55
154 146 155 159 155 145 131 117 102 86 75 66 61 52 48 44 39 34 31 26 21 18 16 16 18 19 23 26 24 351 333 338 355 3 13 16 2 30 59 58 54 44 49
157 151 154 158 154 146 134 119 100 87 76 66 58 48 37 31 26 18 15 13 10 6 3 2 3 3 1 2 359 341 319 307 309 316 345 344 302 270 344 70 59 45 30
161 153 151 157 155 144 130 110 94 82 69 54 45 38 24 18 15 12 7 0 360 358 357 356 352 349 346 345 341 337 327 311 300 276 259 294 296 261 243 232 134 82 16
156 157 157 156 151 141 128 114 93 66 45 43 38 34 20 17 18 14 15 9 7 7 7 359 348 337 330 327 328 325 314 301 286 271 265 269 286 236 229 242 248 247 242
157 157 160 153 146 138 121 103 87 67 52 50 56 53 40 39 39 27 9 6 6 11 2 350 339 326 315 310 307 306 298 284 276 270 272 277 263 263 229 231 239 246 245
147 150 152 148 144 141 136 125 109 100 94 74 55 27 10 14 356 16 12 358 357 357 342 329 334 332 314 298 293 291 285 279 280 282 285 281 272 264 268 243 232 248 243
129 134 137 142 143 146 138 130 124 115 84 56 33 2 351 4 8 349 345 351 347 333 328 329 327 329 327 312 311 317 308 295 287 288 289 294 296 279 259 257 224 246 241
128 130 133 130 131 135 136 137 139 132 92 57 33 23 354 353 0 354 352 334 322 320 318 316 325 327 324 328 339 337 320 313 303 291 287 283 281 287 260 253 224 235 240
146 147 150 144 136 137 131 142 168 169 143 72 32 18 8 5 359 354 342 331 321 316 322 320 314 315 320 320 319 315 310 312 318 303 296 291 284 292 257 241 236 238 261
187 179 165 174 171 169 171 183 201 229 231 14 11 0 354 342 338 345 347 343 333 316 309 305 305 307 309 311 311 310 309 306 298 300 303 290 279 260 219 225 218 231 248
190 197 204 194 199 211 213 214 211 224 243 310 339 343 333 324 324 325 323 325 331 324 318 307 311 309 314 315 316 314 304 299 298 301 303 295 292 269 244 259 259 260 250
197 187 199 213 212 209 200 201 206 226 261 309 312 314 308 307 308 313 318 320 321 314 315 302 309 310 317 314 313 316 305 301 314 303 303 306 297 295 264 262 261 254 250
199 196 197 189 189 190 185 190 203 241 277 307 306 305 300 300 301 306 309 308 307 308 305 299 301 302 303 306 294 308 306 312 305 312 309 310 322 307 289 277 252 247 243
203 207 206 195 197 199 201 224 237 243 262 271 280 283 288 292 297 298 295 290 288 283 277 283 290 293 288 295 287 292 290 299 311 309 305 302 298 297 308 288 253 241 236
204 193 192 196 198 208 207 220 244 265 276 280 279 288 291 293 297 301 287 283 278 271 270 272 281 283 287 289 284 296 282 276 292 307 302 294 291 286 276 274 275 263 254
213 195 198 196 199 204 218 244 265 278 286 292 301 301 297 300 302 305 302 291 281 276 275 274 279 278 285 284 285 283 274 278 286 286 296 292 284 281 283 268 269 278 277
218 212 205 209 214 224 247 267 281 300 298 299 303 306 310 313 313 311 306 298 288 281 279 278 279 278 279 276 279 279 280 286 286 284 282 276 275 271 271 274 276 288 280
222 211 218 240 237 238 260 270 297 304 304 298 310 315 315 314 311 309 306 299 294 289 282 281 281 281 287 292 294 293 293 289 288 292 264 272 273 277 267 269 268 276 293
215 219 230 243 238 256 272 281 294 301 308 310 314 323 325 325 317 315 315 314 312 305 296 283 280 285 288 289 290 294 297 293 291 278 266 257 273 271 265 264 277 279 280
210 221 229 238 245 260 280 290 294 308 309 316 320 325 328 324 319 316 315 311 306 300 294 300 294 289 287 287 297 306 310 312 294 220 222 219 232 225 249 278 282 301 287
219 220 230 235 246 259 292 294 296 312 313 315 321 324 325 321 317 317 316 313 308 302 288 281 280 283 282 287 292 291 292 284 291 292 251 247 242 280 298 289 298 296 312
230 231 233 246 259 280 281 288 309 313 310 320 321 321 318 313 315 315 314 318 320 306 279 284 287 293 294 293 290 290 280 281 291 287 241 270 298 191 224 274 295 300 299
247 232 245 252 270 268 277 302 308 308 316 318 316 314 308 312 314 320 321 322 318 311 298 285 287 289 288 293 290 289 278 278 279 264 284 268 210 273 282 283 293 299 301
234 235 246 258 261 274 296 299 304 309 313 313 310 309 315 322 318 323 321 318 311 302 297 285 284 284 286 288 289 284 276 272 260 264 268 277 282 249 237 282 299 282 292
Wind_Speed_850mb
31 30 27 22 20 21 21 22 23 23 23 23 23 23 23 24 23 22 21 21 21 20 19 18 18 18 18 18 18 17 18 21 24 25 25 24 27 27 26 25 23 21 21
28 29 26 22 20 19 19 19 19 19 19 19 20 20 21 21 21 21 21 21 21 20 20 18 17 14 12 10 10 10 11 13 13 14 14 15 15 18 20 20 21 20 20
24 28 27 23 20 18 16 16 16 16 17 18 19 19 19 19 19 19 18 19 20 21 21 20 19 17 14 10 6 4 6 6 7 9 9 8 7 9 12 14 15 16 16
23 27 26 23 20 17 15 13 14 14 14 14 15 15 16 16 16 17 18 19 20 20 20 19 19 19 18 15 10 8 8 9 9 7 5 9 6 5 1 6 9 10 11
23 24 22 18 16 13 11 10 11 10 10 11 12 12 11 11 13 14 16 17 16 17 20 21 21 20 19 18 16 12 10 10 9 8 9 10 12 11 8 4 2 2 5
22 21 21 18 13 11 9 8 8 6 8 10 9 9 9 12 12 13 15 18 19 17 18 19 18 18 18 17 17 16 12 11 11 12 14 16 15 12 13 11 7 5 4
20 18 20 18 14 10 7 6 6 7 8 9 9 10 11 13 15 14 16 16 17 18 18 19 19 19 18 16 16 15 16 14 14 15 14 16 20 14 20 22 20 13 11
21 23 21 18 14 11 9 9 9 9 11 11 7 8 8 11 10 12 14 9 14 15 14 16 17 17 17 17 18 17 16 17 19 20 19 17 17 25 25 26 23 24 20
22 22 22 20 19 15 15 15 16 12 7 9 11 10 10 14 15 16 18 15 12 13 14 14 17 22 22 20 20 19 19 20 23 26 26 25 21 23 32 30 40 29 26
26 22 20 21 22 23 20 17 15 9 10 9 17 14 13 16 22 27 24 21 17 18 21 23 22 23 23 24 18 15 15 19 23 24 29 29 25 22 21 27 32 32 26
19 17 17 22 21 20 16 11 9 5 2 6 13 17 18 19 26 25 28 23 24 22 17 19 22 24 26 27 27 26 22 20 22 22 24 25 21 19 18 24 25 28 28
21 23 22 22 19 16 12 14 11 10 7 3 11 15 18 20 25 30 29 32 34 33 31 31 30 33 35 34 33 32 30 24 27 30 31 33 27 19 16 9 24 34 35
29 27 24 28 27 24 16 19 17 13 9 5 11 15 20 27 32 36 37 39 37 27 38 38 37 41 42 42 39 28 24 23 23 29 29 31 33 32 41 42 47 43 44
41 37 33 32 29 23 19 19 16 11 8 10 12 18 25 32 36 41 46 48 38 37 37 34 37 39 43 42 34 31 28 23 21 22 23 25 33 37 37 38 44 46 48
46 38 31 34 28 22 23 20 16 12 9 10 15 23 31 33 38 39 34 36 40 43 42 41 45 46 48 42 41 34 31 31 29 28 28 25 25 30 32 34 33 40 43
45 37 33 35 31 27 22 18 17 13 12 16 24 28 31 36 37 25 29 36 38 38 39 43 45 45 41 43 45 42 37 30 37 36 36 36 28 25 24 24 29 40 49
34 36 34 31 33 33 26 18 17 20 25 29 28 36 43 47 42 36 32 37 42 41 42 43 50 49 50 52 48 49 42 37 34 37 34 35 43 36 31 26 20 40 52
31 34 30 32 29 26 20 15 20 26 30 30 36 45 46 48 51 51 48 43 42 41 41 43 49 50 54 50 54 46 48 42 48 50 51 41 42 46 38 31 42 41 31
34 38 36 30 26 20 16 22 23 29 30 33 40 47 53 58 57 50 44 38 38 43 45 45 41 43 46 51 47 53 49 55 59 62 54 49 37 34 45 32 28 31 40
32 36 33 29 21 21 23 25 25 28 33 36 43 51 56 58 58 55 54 57 56 56 55 57 57 56 57 58 59 57 55 54 51 44 40 38 34 32 29 34 28 22 20
40 35 32 29 26 23 29 29 32 31 42 42 50 52 62 57 52 55 55 56 55 52 45 50 57 55 51 41 33 40 50 55 46 34 27 33 26 29 27 27 23 20 23
40 42 38 37 32 26 33 33 34 38 46 54 57 61 62 57 52 54 58 56 51 48 39 33 30 27 27 29 39 45 41 54 16 12 11 9 14 12 17 14 18 18 21
42 47 46 40 33 38 29 29 34 46 50 54 55 57 59 52 55 61 55 51 49 39 32 33 33 34 37 38 43 41 18 17 35 31 13 17 19 15 10 15 18 19 18
44 49 48 39 45 40 28 33 42 47 49 49 52 52 46 49 59 57 52 50 48 35 35 31 32 30 26 27 29 19 18 24 19 16 15 18 13 12 9 13 17 17 17
30 51 47 51 40 27 32 39 46 45 46 49 48 45 45 53 50 45 47 54 47 38 32 29 32 32 29 27 24 25 24 24 24 27 33 16 11 15 17 18 17 18 17
41 41 44 33 28 31 38 42 42 45 49 47 43 43 50 48 45 53 58 55 51 45 32 27 29 27 29 33 35 34 31 29 25 23 26 20 16 12 10 12 10 9 9
Wind_Direction_850mb
159 160 158 158 147 139 126 110 102 97 92 86 81 75 71 66 62 59 55 52 50 51 53 56 59 65 71 69 68 71 78 84 73 66 62 58 57 59 55 51 51 53 61
160 148 155 156 153 143 127 116 107 102 93 85 75 68 62 56 51 45 38 35 34 33 33 35 40 44 53 59 48 49 63 72 64 44 42 41 47 58 58 57 51 49 55
154 146 155 159 155 145 131 117 102 86 75 66 61 52 48 44 39 34 31 26 21 18 16 16 18 19 23 26 24 351 333 338 355 3 13 16 2 30 59 58 54 44 49
157 151 154 158 154 146 134 119 100 87 76 66 58 48 37 31 26 18 15 13 10 6 3 2 3 3 1 2 359 341 319 307 309 316 345 344 302 270 344 70 59 45 30
161 153 151 157 155 144 130 110 94 82 69 54 45 38 24 18 15 12 7 0 360 358 357 356 352 349 346 345 341 337 327 311 300 276 259 294 296 261 243 232 134 82 16
156 157 157 156 151 141 128 114 93 66 45 43 38 34 20 17 18 14 15 9 7 7 7 359 348 337 330 327 328 325 314 301 286 271 265 269 286 236 229 242 248 247 242
157 157 160 153 146 138 121 103 87 67 52 50 56 53 40 39 39 27 9 6 6 11 2 350 339 326 315 310 307 306 298 284 276 270 272 277 263 263 229 231 239 246 245
147 150 152 148 144 141 136 125 109 100 94 74 55 27 10 14 356 16 12 358 357 357 342 329 334 332 314 298 293 291 285 279 280 282 285 281 272 264 268 243 232 248 243
129 134 137 142 143 146 138 130 124 115 84 56 33 2 351 4 8 349 345 351 347 333 328 329 327 329 327 312 311 317 308 295 287 288 289 294 296 279 259 257 224 246 241
128 130 133 130 131 135 136 137 139 132 92 57 33 23 354 353 0 354 352 334 322 320 318 316 325 327 324 328 339 337 320 313 303 291 287 283 281 287 260 253 224 235 240
146 147 150 144 136 137 131 142 168 169 143 72 32 18 8 5 359 354 342 331 321 316 322 320 314 315 320 320 319 315 310 312 318 303 296 291 284 292 257 241 236 238 261
187 179 165 174 171 169 171 183 201 229 231 14 11 0 354 342 338 345 347 343 333 316 309 305 305 307 309 311 311 310 309 306 298 300 303 290 279 260 219 225 218 231 248
190 197 204 194 199 211 213 214 211 224 243 310 339 343 333 324 324 325 323 325 331 324 318 307 311 309 314 315 316 314 304 299 298 301 303 295 292 269 244 259 259 260 250
197 187 199 213 212 209 200 201 206 226 261 309 312 314 308 307 308 313 318 320 321 314 315 302 309 310 317 314 313 316 305 301 314 303 303 306 297 295 264 262 261 254 250
199 196 197 189 189 190 185 190 203 241 277 307 306 305 300 300 301 306 309 308 307 308 305 299 301 302 303 306 294 308 306 312 305 312 309 310 322 307 289 277 252 247 243
203 207 206 195 197 199 201 224 237 243 262 271 280 283 288 292 297 298 295 290 288 283 277 283 290 293 288 295 287 292 290 299 311 309 305 302 298 297 308 288 253 241 236
204 193 192 196 198 208 207 220 244 265 276 280 279 288 291 293 297 301 287 283 278 271 270 272 281 283 287 289 284 296 282 276 292 307 302 294 291 286 276 274 275 263 254
213 195 198 196 199 204 218 244 265 278 286 292 301 301 297 300 302 305 302 291 281 276 275 274 279 278 285 284 285 283 274 278 286 286 296 292 284 281 283 268 269 278 277
218 212 205 209 214 224 247 267 281 300 298 299 303 306 310 313 313 311 306 298 288 281 279 278 279 278 279 276 279 279 280 286 286 284 282 276 275 271 271 274 276 288 280
222 211 218 240 237 238 260 270 297 304 304 298 310 315 315 314 311 309 306 299 294 289 282 281 281 281 287 292 294 293 293 289 288 292 264 272 273 277 267 269 268 276 293
215 219 230 243 238 256 272 281 294 301 308 310 314 323 325 325 317 315 315 314 312 305 296 283 280 285 288 289 290 294 297 293 291 278 266 257 273 271 265 264 277 279 280
210 221 229 238 245 260 280 290 294 308 309 316 320 325 328 324 319 316 315 311 306 300 294 300 294 289 287 287 297 306 310 312 294 220 222 219 232 225 249 278 282 301 287
219 220 230 235 246 259 292 294 296 312 313 315 321 324 325 321 317 317 316 313 308 302 288 281 280 283 282 287 292 291 292 284 291 292 251 247 242 280 298 289 298 296 312
230 231 233 246 259 280 281 288 309 313 310 320 321 321 318 313 315 315 314 318 320 306 279 284 287 293 294 293 290 290 280 281 291 287 241 270 298 191 224 274 295 300 299
247 232 245 252 270 268 277 302 308 308 316 318 316 314 308 312 314 320 321 322 318 311 298 285 287 289 288 293 290 289 278 278 279 264 284 268 210 273 282 283 293 299 301
234 235 246 258 261 274 296 299 304 309 313 313 310 309 315 322 318 323 321 318 311 302 297 285 284 284 286 288 289 284 276 272 260 264 268 277 282 249 237 282 299 282 292